Нарынкол

Казахстан     42°43′35″N   80°10′34″E
темп.,
°C
ветер,
м/с
пор.,
м/с
влажн.,
%
обл.,
%
осадки,
мм/ч
давл.,
гПа
погр.,
м
25 февраля, чт
чт2500:00−7сз1272100 0.0 101425
03:00−11ссв127619 0.0 101521
06:00−11з339739 0.1 101580
09:00−8зсз349393 0.4 1018232
12:00−8зсз348595 0.5 1017364
15:00−11сз3494100 0.3 1018259
18:00−13ссз2297100 1.3 1022307
21:00−16з1293100 0.9 102690
26 февраля, пт
пт2600:00−18зюз1189100 1.4 102929
03:00−21юз1197100 0.1 103020
06:00−22ююз0199100 0.1 103220
09:00−20ссз009599 0.1 103346
12:00−17ссв219193 0.1 1029367
15:00−16ссв118682 0.0 1026314
18:00−21ююз019660 0.1 102920
21:00−23с118830 0.0 103320
27 февраля, сб
сб2700:00−23з118344 0.0 103220
03:00−22сз1181100 0.0 103120
06:00−21зюз1176100 0.0 102920
09:00−17сз0171100 0.0 102941
12:00−14с1175100 0.0 1026185
15:00−11с1174100 0.0 1025187
18:00−14юз0181100 0.0 102720
21:00−15з1173100 0.0 103020
28 февраля, вс
вс2800:00−15з1176100 0.0 103220
03:00−15ссз0177100 0.0 103420
06:00−19юз117784 0.0 103620
09:00−16сз11750 0.0 103622
12:00−12сз11800 0.0 1031157
15:00−9ссз11790 0.0 1028183
18:00−14зсз11850 0.0 102921
21:00−14з11620 0.0 103021
1 марта, пн
пн100:00−14з11480 0.0 102921
03:00−15з12410 0.0 102721
06:00−14з11370 0.0 102621
09:00−10зсз125154 0.0 102621
12:00−5зсз226532 0.0 102286
15:00−1з22700 0.0 1021101
18:00−5зюз11590 0.0 102221
21:00−8ююз124218 0.0 102521